Rocky Mount, NC

5:23 AM EST on December 18, 2017 (GMT -0500)
Rocky Mount-Wilson Regional

Weather History for KRWI - April, 2013

Change the Weather History Date:

Monday, April 1, 2013

  Actual Average Record
Temperature  
Mean Temperature 63 °F -  
Max Temperature 73 °F 70 °F 86 °F (1974)
Min Temperature 53 °F 43 °F 28 °F (1987)
Degree Days  
Heating Degree Days 2    
Growing Degree Days 13 (Base 50)    
Moisture  
Dew Point 48 °F    
Average Humidity 72    
Maximum Humidity 100    
Minimum Humidity 29    
Precipitation  
Precipitation 0.02 in - - ()
Sea Level Pressure  
Sea Level Pressure 29.85 in    
Wind  
Wind Speed 2 mph (WNW)    
Max Wind Speed 13 mph    
Max Gust Speed 22 mph    
Visibility 6 miles    
Events Fog , Rain    
Averages and records for this station are not official NWS values.
T = Trace of Precipitation, MM = Missing Value Source: NWS Daily Summary

Daily Weather History Graph

Daily Weather History Graph

Search for Another Location

Airport or City:

Trip Planner

Search our weather history database for the weather conditions in past years. The results will help you decide how hot, cold, wet, or windy it might be!

Date:

Astronomy

Apr. 01, 2013 Rise Set
Actual Time 6:57 AM EDT 7:33 PM EDT
Civil Twilight 6:31 AM EDT 7:59 PM EDT
Nautical Twilight 6:01 AM EDT 8:29 PM EDT
Astronomical Twilight 5:30 AM EDT 9:00 PM EDT
Moon 12:31 AM EDT (4/1) 10:50 AM EDT (4/1)
Length of Visible Light 13h 27m
Length of Day
12h 35m
Waning Gibbous, 67% of the Moon is Illuminated
Apr 1
Waning Gibbous
Apr 3
Last Quarter
Apr 10
New
Apr 18
First Quarter
Apr 25
Full

Hourly Weather History & Observations

Time (EDT) Temp. Dew Point Humidity Pressure Visibility Wind Dir Wind Speed Gust Speed Precip Events Conditions
12:53 AM 55.0 °F 54.0 °F 96% 29.85 in 4.0 mi Calm Calm - N/A   Overcast
1:00 AM 55.4 °F 53.6 °F 94% 29.85 in 1.8 mi Calm Calm - N/A   Overcast
1:19 AM 55.4 °F 53.6 °F 94% 29.85 in 3.0 mi SSE 3.5 mph - N/A   Overcast
1:53 AM 55.0 °F 53.1 °F 93% 29.86 in 8.0 mi Calm Calm - N/A   Overcast
2:53 AM 55.0 °F 53.1 °F 93% 29.84 in 4.0 mi Calm Calm - N/A   Overcast
3:13 AM 53.6 °F 53.6 °F 100% 29.83 in 1.8 mi Calm Calm - N/A   Mostly Cloudy
3:24 AM 53.6 °F 53.6 °F 100% 29.83 in 0.5 mi Calm Calm - N/A Fog Fog
3:53 AM 53.1 °F 52.0 °F 96% 29.82 in 0.5 mi Calm Calm - N/A Fog Fog
4:53 AM 54.0 °F 53.1 °F 97% 29.83 in 0.8 mi Calm Calm - 0.00 in   Overcast
5:14 AM 55.4 °F 53.6 °F 94% 29.83 in 1.8 mi Calm Calm - 0.01 in Rain Light Rain
5:20 AM 55.4 °F 53.6 °F 94% 29.83 in 3.0 mi Calm Calm - 0.01 in Rain Light Rain
5:53 AM 55.0 °F 53.1 °F 93% 29.84 in 7.0 mi SSW 3.5 mph - 0.02 in Rain Light Rain
7:53 AM 55.9 °F 54.0 °F 93% 29.87 in 6.0 mi Calm Calm - 0.00 in   Overcast
9:53 AM 57.9 °F 50.0 °F 75% 29.87 in 10.0 mi NW 5.8 mph - N/A   Mostly Cloudy
10:53 AM 60.1 °F 48.0 °F 64% 29.88 in 10.0 mi Calm Calm - N/A   Mostly Cloudy
11:53 AM 63.0 °F 46.9 °F 56% 29.87 in 10.0 mi WSW 4.6 mph - N/A   Partly Cloudy
12:53 PM 66.0 °F 44.1 °F 45% 29.85 in 10.0 mi WSW 6.9 mph - N/A   Clear
1:53 PM 70.0 °F 41.0 °F 35% 29.83 in 10.0 mi West 8.1 mph - N/A   Scattered Clouds
3:53 PM 73.0 °F 39.0 °F 29% 29.80 in 10.0 mi West 8.1 mph 18.4 mph N/A   Clear
4:53 PM 73.0 °F 39.0 °F 29% 29.80 in 10.0 mi West 12.7 mph 21.9 mph N/A   Clear
7:53 PM 64.9 °F 37.9 °F 37% 29.84 in 10.0 mi NNW 4.6 mph - N/A   Partly Cloudy
8:53 PM 62.1 °F 37.9 °F 41% 29.86 in 10.0 mi NW 5.8 mph - N/A   Clear
9:53 PM 60.1 °F 39.0 °F 46% 29.89 in 10.0 mi NW 3.5 mph - N/A   Partly Cloudy
10:53 PM 57.9 °F 39.9 °F 51% 29.92 in 10.0 mi North 6.9 mph - N/A   Overcast
11:53 PM 57.0 °F 37.0 °F 47% 29.95 in 10.0 mi North 12.7 mph - N/A   Mostly Cloudy